KE5OYL Weather Reports


Display with metric or nautical units.
time (UTC)temp
F
wind
direction
speed
MPH
gust
MPH
rain 1hr
in
rain 24hr
in
rain mn
in
humidity
%
barometer
mb
20260902125648 81 90 5.0 9.0 0.00 0.00 0.00 72 1016.5
20260902125144 81 61 7.0 10.0 0.00 0.00 0.00 72 1016.5
20260902124641 81 74 5.0 9.0 0.00 0.00 0.00 72 1016.2
20260902124140 81 53 3.0 7.0 0.00 0.00 0.00 72 1016.2
20260902123636 81 88 3.0 3.0 0.00 0.00 0.00 71 1016.1
20260902123137 81 59 3.0 5.0 0.00 0.00 0.00 71 1016.1
20260902122631 81 68 3.0 5.0 0.00 0.00 0.00 72 1016.1
20260902122126 81 62 2.0 3.0 0.00 0.00 0.00 72 1016.0
20260902121621 80 55 3.0 3.0 0.00 0.00 0.00 73 1015.9
20260902121115 80 25 0.0 5.0 0.00 0.00 0.00 73 1016.1
20260902120612 80 91 4.0 5.0 0.00 0.00 0.00 73 1016.1
20260902120108 80 70 3.0 6.0 0.00 0.00 0.00 73 1016.1
20260902115603 80 114 3.0 5.0 0.00 0.00 0.00 73 1015.9
20260902115059 80 88 4.0 5.0 0.00 0.00 0.00 73 1016.1
20260902114555 81 31 2.0 5.0 0.00 0.00 0.00 73 1015.9
20260902114054 81 75 3.0 3.0 0.00 0.00 0.00 73 1016.3
20260902113550 81 75 5.0 6.0 0.00 0.00 0.00 72 1016.2
20260902113045 81 60 2.0 6.0 0.00 0.00 0.00 72 1016.3
20260902112540 81 51 1.0 3.0 0.00 0.00 0.00 71 1016.1
20260902112037 81 70 2.0 3.0 0.00 0.00 0.00 71 1016.0
20260902111533 81 63 3.0 5.0 0.00 0.00 0.00 71 1016.1
20260902111028 81 50 2.0 5.0 0.00 0.00 0.00 70 1016.2
20260902110525 81 33 0.0 2.0 0.00 0.00 0.00 70 1016.4
20260902110020 82 33 1.0 2.0 0.00 0.00 0.00 70 1016.5
20260902105520 82 24 1.0 2.0 0.00 0.00 0.00 69 1016.0
20260902105014 82 35 2.0 2.0 0.00 0.00 0.00 69 1015.9
20260902104509 82 36 1.0 3.0 0.00 0.00 0.00 69 1016.1
20260902104004 82 25 1.0 2.0 0.00 0.00 0.00 69 1016.2
20260902103459 82 30 1.0 2.0 0.00 0.00 0.00 69 1016.1
20260902102954 82 25 1.0 3.0 0.00 0.00 0.00 69 1015.9
20260902102451 82 354 0.0 5.0 0.00 0.00 0.00 69 1016.1
20260902101947 82 87 3.0 6.0 0.00 0.00 0.00 68 1016.1
20260902101442 82 326 2.0 2.0 0.00 0.00 0.00 68 1016.0
20260902100941 82 122 3.0 5.0 0.00 0.00 0.00 68 1015.9
20260902100436 82 22 1.0 3.0 0.00 0.00 0.00 68 1015.9
20260902095936 83 100 3.0 3.0 0.00 0.00 0.00 68 1016.1
20260902095431 83 100 2.0 3.0 0.00 0.00 0.00 67 1016.1
20260902094930 83 21 1.0 2.0 0.00 0.00 0.00 68 1015.9
20260902094426 83 300 1.0 2.0 0.00 0.00 0.00 68 1016.0
20260902093921 83 178 2.0 3.0 0.00 0.00 0.00 67 1016.1
20260902093416 83 315 1.0 2.0 0.00 0.00 0.00 67 1015.8
20260902092914 83 232 2.0 2.0 0.00 0.00 0.00 67 1016.1
20260902092410 83 45 1.0 3.0 0.00 0.00 0.00 67 1016.0
20260902091905 83 84 2.0 3.0 0.00 0.00 0.00 67 1016.0
20260902091400 83 143 3.0 3.0 0.00 0.00 0.00 67 1016.0
20260902090857 83 7 0.0 1.0 0.00 0.00 0.00 67 1015.8
20260902090357 83 49 1.0 2.0 0.00 0.00 0.00 67 1016.0
20260902085855 83 65 2.0 2.0 0.00 0.00 0.00 68 1015.7
20260902085351 83 159 2.0 2.0 0.00 0.00 0.00 67 1015.9
20260902084846 83 242 3.0 3.0 0.00 0.00 0.00 67 1015.7
20260902084343 83 127 3.0 3.0 0.00 0.00 0.00 67 1015.7
20260902083838 83 325 1.0 2.0 0.00 0.00 0.00 67 1015.8
20260902083337 84 16 1.0 1.0 0.00 0.00 0.00 66 1015.8
20260902082833 84 40 2.0 3.0 0.00 0.00 0.00 66 1015.8
20260902082329 84 157 5.0 6.0 0.00 0.00 0.00 67 1015.8
20260902081825 83 137 3.0 7.0 0.00 0.00 0.00 67 1015.7
20260902081320 83 196 4.0 6.0 0.00 0.00 0.00 67 1015.8
20260902080815 84 232 2.0 5.0 0.00 0.00 0.00 67 1015.7
20260902080312 84 340 1.0 3.0 0.00 0.00 0.00 67 1015.8
20260902075811 84 7 0.0 2.0 0.00 0.00 0.00 67 1015.7
20260902075307 84 222 2.0 3.0 0.00 0.00 0.00 67 1015.9
20260902074802 84 168 1.0 3.0 0.00 0.00 0.00 67 1016.0
20260902074258 84 29 2.0 5.0 0.00 0.00 0.00 67 1015.8
20260902073752 84 33 1.0 3.0 0.00 0.00 0.00 68 1015.8
20260902073249 84 233 2.0 5.0 0.00 0.00 0.00 68 1016.0
20260902072744 84 172 2.0 7.0 0.00 0.00 0.00 69 1015.9
20260902072240 84 132 1.0 6.0 0.00 0.00 0.00 68 1015.5
20260902071736 84 102 3.0 6.0 0.00 0.00 0.00 68 1015.8
20260902071231 84 324 2.0 5.0 0.00 0.00 0.00 68 1015.8
20260902070728 84 50 3.0 3.0 0.00 0.00 0.00 68 1015.9
20260902070227 84 124 5.0 8.0 0.00 0.00 0.00 68 1016.0
20260902065726 84 115 5.0 7.0 0.00 0.00 0.00 68 1015.8
20260902065221 84 73 3.0 7.0 0.00 0.00 0.00 68 1015.8
20260902064717 84 142 3.0 8.0 0.00 0.00 0.00 68 1015.8
20260902064212 85 82 4.0 7.0 0.00 0.00 0.00 67 1015.9
20260902063708 85 32 2.0 7.0 0.00 0.00 0.00 67 1015.9
20260902063202 85 87 2.0 7.0 0.00 0.00 0.00 67 1015.7
20260902062702 85 142 3.0 8.0 0.00 0.00 0.00 67 1015.9
20260902062157 85 179 5.0 6.0 0.00 0.00 0.00 67 1015.7
20260902061655 85 152 4.0 6.0 0.00 0.00 0.00 66 1015.9
20260902061151 85 64 3.0 5.0 0.00 0.00 0.00 66 1016.0
20260902060648 85 58 2.0 6.0 0.00 0.00 0.00 66 1015.9
20260902060144 86 40 1.0 2.0 0.00 0.00 0.00 65 1015.8
20260902055639 86 44 3.0 3.0 0.00 0.00 0.00 65 1015.7
20260902055135 86 28 2.0 6.0 0.00 0.00 0.00 64 1015.7
20260902054630 86 313 5.0 7.0 0.00 0.00 0.00 64 1015.7
20260902054126 86 52 3.0 7.0 0.00 0.00 0.00 64 1015.6
20260902053621 87 122 5.0 6.0 0.00 0.00 0.00 63 1015.9
20260902053121 87 73 2.0 8.0 0.00 0.00 0.00 63 1015.7
20260902052615 87 39 1.0 5.0 0.00 0.00 0.00 62 1015.8
20260902052111 87 61 3.0 5.0 0.00 0.00 0.00 63 1015.9
20260902051610 87 41 2.0 3.0 0.00 0.00 0.00 62 1015.9
20260902051109 87 124 3.0 5.0 0.00 0.00 0.00 62 1015.9
20260902050604 87 160 3.0 8.0 0.00 0.00 0.00 62 1015.8
20260902050059 87 34 1.0 6.0 0.00 0.00 0.00 61 1015.9
20260902045554 87 178 7.0 9.0 0.00 0.00 0.00 61 1015.8
20260902045050 88 169 5.0 7.0 0.00 0.00 0.00 61 1015.6
20260902044545 87 222 6.0 8.0 0.00 0.00 0.00 60 1015.6
20260902044040 88 51 1.0 5.0 0.00 0.00 0.00 60 1015.6
20260902043536 88 155 8.0 10.0 0.00 0.00 0.00 60 1015.5
20260902043031 88 141 8.0 10.0 0.00 0.00 0.00 60 1015.7
20260902042530 88 116 3.0 7.0 0.00 0.00 0.00 59 1015.6
20260902042025 88 185 3.0 14.0 0.00 0.00 0.00 59 1015.6
20260902041520 88 151 11.0 14.0 0.00 0.00 0.00 59 1015.6
20260902041015 89 154 5.0 8.0 0.00 0.00 0.00 58 1015.7
20260902040515 89 195 7.0 9.0 0.00 0.00 0.00 57 1015.9
20260902040015 89 201 8.0 10.0 0.00 0.00 0.00 57 1015.7
20260902035508 89 122 5.0 9.0 0.00 0.00 0.00 56 1015.5
20260902035003 90 80 9.0 13.0 0.00 0.00 0.00 55 1015.6
20260902034457 91 81 3.0 7.0 0.00 0.00 0.00 53 1015.6
20260902033957 92 112 12.0 18.0 0.00 0.00 0.00 51 1015.2
20260902033456 92 88 3.0 5.0 0.00 0.00 0.00 50 1015.3
20260902032955 92 66 3.0 3.0 0.00 0.00 0.00 50 1015.0
20260902032449 92 2 1.0 2.0 0.00 0.00 0.00 51 1014.8
20260902031939 92 18 0.0 2.0 0.00 0.00 0.00 50 1014.8
20260902031434 92 10 1.0 3.0 0.00 0.00 0.00 50 1015.0
20260902030930 92 96 2.0 3.0 0.00 0.00 0.00 50 1014.6
20260902030424 92 29 2.0 2.0 0.00 0.00 0.00 50 1014.8
20260902025923 92 58 2.0 3.0 0.00 0.00 0.00 51 1014.8
20260902025419 92 37 2.0 2.0 0.00 0.00 0.00 51 1014.7
20260902024914 92 34 1.0 3.0 0.00 0.00 0.00 51 1014.6
20260902024409 92 193 2.0 3.0 0.00 0.00 0.00 51 1014.6
20260902023904 92 51 3.0 3.0 0.00 0.00 0.00 51 1014.4
20260902023400 92 81 4.0 6.0 0.00 0.00 0.00 50 1014.6
20260902022859 93 101 3.0 6.0 0.00 0.00 0.00 50 1014.4
20260902022354 93 58 3.0 7.0 0.00 0.00 0.00 49 1014.3
20260902021850 93 59 3.0 6.0 0.00 0.00 0.00 49 1014.2
20260902021350 94 27 1.0 5.0 0.00 0.00 0.00 48 1014.2
20260902020846 94 75 2.0 5.0 0.00 0.00 0.00 48 1014.1
20260902020342 94 156 3.0 6.0 0.00 0.00 0.00 47 1014.0
20260902015837 94 25 1.0 3.0 0.00 0.00 0.00 47 1014.1
20260902015333 94 137 3.0 5.0 0.00 0.00 0.00 47 1013.9
20260902014828 95 126 4.0 6.0 0.00 0.00 0.00 46 1013.7
20260902014325 95 66 3.0 3.0 0.00 0.00 0.00 45 1013.7
20260902013823 95 103 3.0 5.0 0.00 0.00 0.00 46 1013.9
20260902013319 95 75 3.0 5.0 0.00 0.00 0.00 45 1013.4
20260902012814 95 46 1.0 5.0 0.00 0.00 0.00 44 1013.6
20260902012310 96 216 1.0 2.0 0.00 0.00 0.00 44 1013.4
20260902011806 95 92 3.0 5.0 0.00 0.00 0.00 44 1013.5
20260902011300 96 72 2.0 5.0 0.00 0.00 0.00 44 1013.5
20260902010759 96 73 3.0 5.0 0.00 0.00 0.00 44 1013.2
20260902010255 95 137 3.0 5.0 0.00 0.00 0.00 44 1013.3
20260902005753 96 74 3.0 6.0 0.00 0.00 0.00 44 1013.4
20260902005248 95 42 3.0 3.0 0.00 0.00 0.00 44 1013.5
20260902004743 96 130 3.0 3.0 0.00 0.00 0.00 44 1013.5
20260902004238 96 131 4.0 5.0 0.00 0.00 0.00 44 1013.4
20260902003733 96 105 5.0 6.0 0.00 0.00 0.00 44 1013.5
20260902003229 96 82 4.0 6.0 0.00 0.00 0.00 43 1013.2
20260902002725 97 5 1.0 3.0 0.00 0.00 0.00 43 1013.4
20260902002224 97 160 3.0 5.0 0.00 0.00 0.00 43 1013.5
20260902001720 97 99 6.0 6.0 0.00 0.00 0.00 43 1013.6
20260902001219 97 128 3.0 8.0 0.00 0.00 0.00 43 1013.5
20260902000714 96 54 2.0 7.0 0.00 0.00 0.00 43 1013.6
20260902000211 97 146 4.0 8.0 0.00 0.00 0.00 43 1013.5
20260901235709 97 113 3.0 7.0 0.00 0.00 0.00 42 1013.5
20260901235204 96 69 2.0 8.0 0.00 0.00 0.00 43 1013.7
20260901234704 96 69 5.0 9.0 0.00 0.00 0.00 43 1013.6
20260901234159 97 40 6.0 9.0 0.00 0.00 0.00 43 1013.9
20260901233658 97 100 5.0 7.0 0.00 0.00 0.00 42 1013.8
20260901233155 97 93 6.0 9.0 0.00 0.00 0.00 42 1013.6
20260901232649 97 97 4.0 9.0 0.00 0.00 0.00 42 1013.7
20260901232145 98 41 4.0 7.0 0.00 0.00 0.00 41 1013.9
20260901231642 98 67 5.0 9.0 0.00 0.00 0.00 41 1013.7
20260901231137 98 56 5.0 9.0 0.00 0.00 0.00 42 1013.7
20260901230633 98 70 5.0 7.0 0.00 0.00 0.00 41 1013.6
20260901230132 99 109 8.0 10.0 0.00 0.00 0.00 41 1013.7
20260901225628 98 46 10.0 13.0 0.00 0.00 0.00 41 1014.0
20260901225128 99 35 1.0 3.0 0.00 0.00 0.00 41 1013.8
20260901224624 100 57 6.0 8.0 0.00 0.00 0.00 40 1014.1
20260901224120 99 74 4.0 7.0 0.00 0.00 0.00 40 1013.9
20260901223615 98 38 5.0 7.0 0.00 0.00 0.00 41 1013.8
20260901223110 98 118 8.0 11.0 0.00 0.00 0.00 41 1013.6
20260901222607 99 106 8.0 9.0 0.00 0.00 0.00 41 1013.7
20260901222102 98 78 5.0 10.0 0.00 0.00 0.00 41 1014.0
20260901221558 98 29 4.0 6.0 0.00 0.00 0.00 41 1013.7
20260901221053 98 49 3.0 3.0 0.00 0.00 0.00 41 1013.9
20260901220552 98 105 3.0 5.0 0.00 0.00 0.00 41 1013.8
20260901220052 97 76 4.0 7.0 0.00 0.00 0.00 42 1014.1
20260901215550 97 74 5.0 9.0 0.00 0.00 0.00 43 1014.0
20260901215044 97 83 1.0 6.0 0.00 0.00 0.00 42 1014.1
20260901214543 98 49 5.0 9.0 0.00 0.00 0.00 42 1014.4
20260901214038 97 28 2.0 7.0 0.00 0.00 0.00 42 1014.1
20260901213537 98 40 4.0 7.0 0.00 0.00 0.00 41 1014.1
20260901213032 97 103 6.0 10.0 0.00 0.00 0.00 42 1014.2
20260901212531 98 36 3.0 6.0 0.00 0.00 0.00 42 1014.1
20260901212029 98 330 3.0 10.0 0.00 0.00 0.00 41 1014.4
20260901211523 98 16 2.0 9.0 0.00 0.00 0.00 41 1014.2
20260901211020 98 55 4.0 11.0 0.00 0.00 0.00 41 1014.3
20260901210515 98 19 2.0 5.0 0.00 0.00 0.00 41 1014.4
20260901210011 100 59 3.0 5.0 0.00 0.00 0.00 39 1014.5
20260901205506 99 21 1.0 7.0 0.00 0.00 0.00 39 1014.4
20260901205000 99 132 7.0 10.0 0.00 0.00 0.00 40 1014.5
20260901204457 98 15 1.0 7.0 0.00 0.00 0.00 41 1014.4
20260901203956 99 21 2.0 9.0 0.00 0.00 0.00 41 1014.4
20260901203451 101 31 2.0 8.0 0.00 0.00 0.00 40 1014.5
20260901202946 99 195 5.0 6.0 0.00 0.00 0.00 39 1014.4
20260901202441 98 139 3.0 5.0 0.00 0.00 0.00 39 1014.4
20260901201937 98 135 7.0 9.0 0.00 0.00 0.00 40 1014.8
20260901201432 98 89 6.0 8.0 0.00 0.00 0.00 41 1014.9
20260901200926 97 124 3.0 7.0 0.00 0.00 0.00 42 1014.8
20260901200421 96 29 2.0 8.0 0.00 0.00 0.00 43 1015.0
20260901195920 96 26 1.0 6.0 0.00 0.00 0.00 43 1015.0
20260901195419 97 70 5.0 11.0 0.00 0.00 0.00 43 1015.2
20260901194914 97 19 0.0 2.0 0.00 0.00 0.00 41 1014.9
20260901194408 97 83 5.0 7.0 0.00 0.00 0.00 42 1015.2
20260901193905 98 214 3.0 5.0 0.00 0.00 0.00 41 1015.3
20260901193403 98 95 5.0 8.0 0.00 0.00 0.00 41 1015.3
20260901192858 98 128 4.0 8.0 0.00 0.00 0.00 42 1015.5
20260901192354 98 340 3.0 9.0 0.00 0.00 0.00 42 1015.4
20260901191850 99 96 5.0 7.0 0.00 0.00 0.00 40 1015.3
20260901191345 98 358 1.0 6.0 0.00 0.00 0.00 41 1015.6
20260901190841 95 52 2.0 7.0 0.00 0.00 0.00 43 1015.7
20260901190341 95 97 7.0 10.0 0.00 0.00 0.00 45 1015.6
20260901185839 96 65 5.0 9.0 0.00 0.00 0.00 43 1015.8
20260901185338 97 99 4.0 8.0 0.00 0.00 0.00 43 1016.0
20260901184833 97 165 6.0 9.0 0.00 0.00 0.00 42 1015.7
20260901184329 97 158 6.0 9.0 0.00 0.00 0.00 40 1016.1
20260901183825 97 151 7.0 10.0 0.00 0.00 0.00 41 1016.4
20260901183324 97 155 7.0 10.0 0.00 0.00 0.00 43 1016.4
20260901182820 96 187 6.0 9.0 0.00 0.00 0.00 44 1016.6
20260901182320 96 147 9.0 11.0 0.00 0.00 0.00 44 1016.4
20260901181815 96 28 4.0 6.0 0.00 0.00 0.00 44 1016.6
20260901181309 95 1 1.0 1.0 0.00 0.00 0.00 45 1016.6
20260901180803 94 177 4.0 5.0 0.00 0.00 0.00 46 1016.6
20260901180302 94 165 5.0 6.0 0.00 0.00 0.00 48 1016.9
20260901175801 94 165 5.0 8.0 0.00 0.00 0.00 48 1016.9
20260901175256 94 104 3.0 6.0 0.00 0.00 0.00 49 1017.0
20260901174751 94 146 6.0 9.0 0.00 0.00 0.00 49 1017.0
20260901174247 94 218 3.0 5.0 0.00 0.00 0.00 48 1017.2
20260901173743 96 183 5.0 7.0 0.00 0.00 0.00 47 1017.2
20260901173237 94 67 4.0 10.0 0.00 0.00 0.00 48 1017.2
20260901172734 95 135 4.0 6.0 0.00 0.00 0.00 47 1017.3
20260901172232 94 9 0.0 5.0 0.00 0.00 0.00 49 1017.4
20260901171731 93 74 5.0 7.0 0.00 0.00 0.00 49 1017.5
20260901171230 93 28 3.0 6.0 0.00 0.00 0.00 50 1017.6
20260901170729 94 49 5.0 7.0 0.00 0.00 0.00 48 1017.4
20260901170224 94 14 3.0 3.0 0.00 0.00 0.00 49 1017.7
20260901165723 96 15 2.0 3.0 0.00 0.00 0.00 46 1017.7
20260901165218 95 199 3.0 8.0 0.00 0.00 0.00 48 1017.6
20260901164714 94 41 2.0 7.0 0.00 0.00 0.00 49 1017.9
20260901164209 93 159 3.0 7.0 0.00 0.00 0.00 50 1017.7
20260901163704 95 51 3.0 3.0 0.00 0.00 0.00 47 1018.1
20260901163203 95 67 3.0 5.0 0.00 0.00 0.00 49 1018.1
20260901162659 95 272 3.0 3.0 0.00 0.00 0.00 49 1017.8
20260901162158 93 45 3.0 3.0 0.00 0.00 0.00 51 1017.9
20260901161656 94 223 7.0 8.0 0.00 0.00 0.00 49 1017.9
20260901161151 92 23 0.0 2.0 0.00 0.00 0.00 53 1017.9
20260901160648 92 49 2.0 5.0 0.00 0.00 0.00 52 1018.1
20260901160143 91 228 5.0 7.0 0.00 0.00 0.00 53 1018.1
20260901155642 94 280 3.0 3.0 0.00 0.00 0.00 50 1017.9
20260901155137 92 37 3.0 3.0 0.00 0.00 0.00 53 1017.8
20260901154632 91 188 6.0 9.0 0.00 0.00 0.00 54 1018.2
20260901154127 91 90 3.0 6.0 0.00 0.00 0.00 54 1018.1
20260901153621 90 215 4.0 6.0 0.00 0.00 0.00 55 1018.1
20260901153115 91 254 4.0 5.0 0.00 0.00 0.00 55 1018.2
20260901152611 91 146 2.0 2.0 0.00 0.00 0.00 53 1017.7
20260901152109 90 331 2.0 6.0 0.00 0.00 0.00 57 1018.1
20260901151605 90 100 2.0 3.0 0.00 0.00 0.00 56 1017.8
20260901151104 89 214 4.0 7.0 0.00 0.00 0.00 57 1017.9
20260901150602 89 228 3.0 3.0 0.00 0.00 0.00 58 1017.9
20260901150056 90 231 3.0 8.0 0.00 0.00 0.00 59 1018.1
20260901145554 89 10 1.0 2.0 0.00 0.00 0.00 60 1018.2
20260901145048 89 201 4.0 5.0 0.00 0.00 0.00 60 1017.9
20260901144544 89 175 4.0 6.0 0.00 0.00 0.00 60 1018.4
20260901144039 88 330 1.0 2.0 0.00 0.00 0.00 61 1018.3
20260901143534 88 75 2.0 3.0 0.00 0.00 0.00 60 1018.4
20260901143026 88 6 1.0 2.0 0.00 0.00 0.00 61 1018.1
20260901142525 90 88 2.0 3.0 0.00 0.00 0.00 60 1018.1
20260901142015 88 27 0.0 1.0 0.00 0.00 0.00 61 1018.3
20260901141515 86 50 1.0 5.0 0.00 0.00 0.00 64 1018.1
20260901141010 86 117 2.0 2.0 0.00 0.00 0.00 64 1018.1
20260901140508 86 200 3.0 5.0 0.00 0.00 0.00 64 1018.2
20260901140003 86 316 3.0 5.0 0.00 0.00 0.00 64 1018.2
20260901135501 86 349 1.0 3.0 0.00 0.00 0.00 64 1018.5
20260901134957 85 55 2.0 6.0 0.00 0.00 0.00 65 1018.2
20260901134453 85 48 2.0 3.0 0.00 0.00 0.00 65 1018.3
20260901133948 84 1 1.0 3.0 0.00 0.00 0.00 66 1017.9
20260901133447 85 7 1.0 3.0 0.00 0.00 0.00 65 1018.2
20260901132946 86 103 1.0 2.0 0.00 0.00 0.00 64 1018.3
20260901132445 86 15 1.0 1.0 0.00 0.00 0.00 63 1018.4
20260901131945 85 17 0.0 1.0 0.00 0.00 0.00 64 1017.9
20260901131439 84 36 1.0 2.0 0.00 0.00 0.00 65 1018.2
20260901130935 84 55 1.0 2.0 0.00 0.00 0.00 65 1018.2
20260901130429 83 30 1.0 2.0 0.00 0.00 0.00 67 1018.1
20260901125927 83 33 1.0 3.0 0.00 0.00 0.00 67 1018.2